Powrót do katalogu

TITAN 3C TRANSTAGE DEB

LostHEO
NORAD 34173·DEBRIS·🇺🇸 United States

Wystrzelony Dec 21, 1965 z Cape Canaveral Space Force Station

Loading…

Następne Przeloty (najbliższe 24 godziny)

TLE

NieaktualneSource: Space-Track

Epoka: Dec 17, 2022, 05:57 UTC

1 34173U 65108DG  22351.24794472 -.00000028  00000-0 -27718-2 0  9999
2 34173  26.9648 168.4445 6716469 316.9675 331.9225  2.68321617172846

Śledź TITAN 3C TRANSTAGE DEB w czasie rzeczywistym z AllMySat

Download on the App Store